Nanticoke River Bridgeville DE USA current weather conditions

sailwx.info

Wind from 295 at 1 knots gusting 2

Air temperature -4.7° C
Dewpoint -10.6° C

Last reported at 2020-Jan-18 10:05 UTC.
Time now 2020-Jan-18 11:11 UTC

Location: N 38°43' W 075°35'.
View on Google Maps.

See reports from other nearby stations

  
Tides and Currents Weather Stations Pressure Air Temp Water Temp Dewpoint Dewpoint Depression Visibility Wind Speed Wind Dir Waves Ship Positions
date/time (UTC)wind fromknots sea level pressurealtimeterstation pressurevisibilityair tempwater tempwave heightnotes
2020-Jan-18 10:05 295 1 gusting 2 -4.7
2020-Jan-18 10:00 301 2 gusting 3 -4.7
2020-Jan-18 09:55 294 2 gusting 3 -4.7
2020-Jan-18 09:50 302 1 gusting 2 -4.6
2020-Jan-18 09:45 309 1 gusting 2 -4.6
2020-Jan-18 09:40 312 1 gusting 2 -4.7
2020-Jan-18 09:35 302 1 gusting 2 -4.8
2020-Jan-18 09:30 298 1 gusting 2 -4.8
2020-Jan-18 09:25 301 1 gusting 1 -4.8
2020-Jan-18 09:20 305 1 gusting 1 -4.8
2020-Jan-18 09:15 326 1 gusting 2 -4.9
2020-Jan-18 09:10 314 1 gusting 2 -4.9
2020-Jan-18 09:05 315 1 gusting 1 -4.9
2020-Jan-18 09:00 331 1 gusting 2 -4.9
2020-Jan-18 08:55 315 1 gusting 2 -5.0
2020-Jan-18 08:50 304 1 gusting 1 -5.0
2020-Jan-18 08:45 282 1 gusting 1 -5.1
2020-Jan-18 08:40 283 0 gusting 1 -5.1
2020-Jan-18 08:35 -5.2
2020-Jan-18 08:30 285 0 gusting 1 -5.2
2020-Jan-18 08:25 289 0 gusting 1 -5.3
2020-Jan-18 08:20 295 1 gusting 1 -5.4
2020-Jan-18 08:15 299 0 gusting 1 -5.5
2020-Jan-18 08:10 292 0 gusting 1 -5.5
2020-Jan-18 08:05 293 0 gusting 0 -5.5
2020-Jan-18 08:00 348 0 gusting 0 -5.5
2020-Jan-18 07:55 350 0 gusting 0 -5.6
2020-Jan-18 07:50 037 0 gusting 0 -5.6
2020-Jan-18 07:45 039 0 gusting 0 -5.7
2020-Jan-18 07:40 -5.8
2020-Jan-18 07:35 -5.8
2020-Jan-18 07:30 -5.8
2020-Jan-18 07:25 -5.8
2020-Jan-18 07:20 -5.8
2020-Jan-18 07:15 133 0 gusting 0 -5.8
2020-Jan-18 07:10 128 0 gusting 0 -5.8
2020-Jan-18 07:05 122 0 gusting 1 -5.8
2020-Jan-18 07:00 114 0 gusting 1 -5.8
2020-Jan-18 06:55 110 0 gusting 1 -5.6
2020-Jan-18 06:50 092 0 gusting 0 -5.6
2020-Jan-18 06:45 098 0 gusting 0 -5.5
2020-Jan-18 06:40 104 0 gusting 0 -5.5
2020-Jan-18 06:35 033 0 gusting 1 -5.5
2020-Jan-18 06:30 098 0 gusting 0 -5.5
2020-Jan-18 06:25 092 0 gusting 1 -5.5
2020-Jan-18 06:20 066 0 gusting 1 -5.5
2020-Jan-18 06:15 084 0 gusting 2 -5.6
2020-Jan-18 06:10 049 0 gusting 1 -5.7
2020-Jan-18 06:05 096 0 gusting 1 -5.7
2020-Jan-18 06:00 098 1 gusting 2 -5.6
2020-Jan-18 05:55 087 0 gusting 1 -5.4
2020-Jan-18 05:50 100 1 gusting 2 -5.4
2020-Jan-18 05:45 100 0 gusting 1 -5.4
2020-Jan-18 05:40 064 0 gusting 1 -5.5
2020-Jan-18 05:35 067 0 gusting 1 -5.7
2020-Jan-18 05:30 065 0 gusting 1 -5.5
2020-Jan-18 05:25 053 0 gusting 1 -5.5
2020-Jan-18 05:20 049 0 gusting 1 -5.3
2020-Jan-18 05:15 032 0 gusting 1 -5.3
2020-Jan-18 05:10 015 1 gusting 1 -5.6
2020-Jan-18 05:05 029 0 gusting 1 -5.9
2020-Jan-18 05:00 059 0 gusting 1 -5.4
2020-Jan-18 04:55 035 1 gusting 2 -5.3
2020-Jan-18 04:50 021 1 gusting 2 -5.4
2020-Jan-18 04:45 039 1 gusting 3 -5.5
2020-Jan-18 04:40 033 0 gusting 1 -5.8
2020-Jan-18 04:35 065 0 gusting 1 -5.8
2020-Jan-18 04:30 080 0 gusting 1 -5.7
2020-Jan-18 04:25 049 0 gusting 1 -5.3
2020-Jan-18 04:20 029 1 gusting 2 -5.3
2020-Jan-18 04:15 016 1 gusting 2 -5.2
2020-Jan-18 04:10 033 1 gusting 3 -5.1
2020-Jan-18 04:05 024 1 gusting 3 -5.0
2020-Jan-18 04:00 026 1 gusting 3 -4.9
2020-Jan-18 03:55 038 1 gusting 2 -4.9
2020-Jan-18 03:50 036 1 gusting 3 -4.8
2020-Jan-18 03:45 043 1 gusting 3 -4.6
2020-Jan-18 03:40 030 2 gusting 4 -4.6
2020-Jan-18 03:35 017 2 gusting 5 -4.7
2020-Jan-18 03:30 022 2 gusting 3 -4.5
2020-Jan-18 03:25 041 2 gusting 4 -4.5
2020-Jan-18 03:20 050 1 gusting 3 -4.7
2020-Jan-18 03:15 050 2 gusting 3 -4.7
2020-Jan-18 03:10 038 2 gusting 5 -4.3
2020-Jan-18 03:05 021 3 gusting 5 -4.4
2020-Jan-18 03:00 018 3 gusting 5 -4.7
2020-Jan-18 02:55 036 2 gusting 3 -4.6
2020-Jan-18 02:50 016 2 gusting 5 -4.8
2020-Jan-18 02:45 017 2 gusting 3 -4.9
2020-Jan-18 02:40 018 1 gusting 2 -4.8
2020-Jan-18 02:35 036 1 gusting 2 -4.7
2020-Jan-18 02:30 021 1 gusting 2 -4.6
2020-Jan-18 02:25 036 1 gusting 2 -4.3
2020-Jan-18 02:20 011 0 gusting 1 -4.4
2020-Jan-18 02:15 335 1 gusting 2 -4.6
2020-Jan-18 02:10 303 1 gusting 2 -4.1
2020-Jan-18 02:05 340 1 gusting 3 -3.9
2020-Jan-18 02:00 353 2 gusting 3 -4.0
2020-Jan-18 01:55 357 1 gusting 3 -4.1
2020-Jan-18 01:50 356 1 gusting 2 -4.2
2020-Jan-18 01:45 019 0 gusting 1 -4.2
2020-Jan-18 01:40 031 0 gusting 1 -3.9
2020-Jan-18 01:35 020 1 gusting 2 -3.7
2020-Jan-18 01:30 007 1 gusting 2 -3.7
2020-Jan-18 01:25 342 1 gusting 2 -3.8
2020-Jan-18 01:20 331 1 gusting 2 -3.8
2020-Jan-18 01:15 315 1 gusting 2 -3.8
2020-Jan-18 01:10 312 1 gusting 2 -3.7
2020-Jan-18 01:05 319 1 gusting 2 -3.5
2020-Jan-18 01:00 304 1 gusting 2 -3.4
2020-Jan-18 00:55 357 1 gusting 2 -3.4
2020-Jan-18 00:50 325 1 gusting 1 -3.3
2020-Jan-18 00:45 311 1 gusting 2 -3.3
2020-Jan-18 00:40 333 1 gusting 3 -3.0
2020-Jan-18 00:35 352 3 gusting 4 -3.2
2020-Jan-18 00:30 332 1 gusting 2 -3.6
2020-Jan-18 00:25 309 1 gusting 2 -3.3
2020-Jan-18 00:20 328 1 gusting 3 -3.5
2020-Jan-18 00:15 309 2 gusting 3 -3.1
2020-Jan-18 00:10 342 2 gusting 4 -2.7
2020-Jan-18 00:05 355 2 gusting 4 -2.6
2020-Jan-18 00:00 352 3 gusting 5 -2.6
2020-Jan-17 23:55 349 4 gusting 6 -2.6
2020-Jan-17 23:50 328 2 gusting 5 -2.7
2020-Jan-17 23:45 341 2 gusting 5 -2.3
2020-Jan-17 23:40 348 3 gusting 5 -2.3
2020-Jan-17 23:35 349 3 gusting 4 -2.3
2020-Jan-17 23:30 346 3 gusting 5 -2.2
2020-Jan-17 23:25 347 4 gusting 6 -2.2
2020-Jan-17 23:20 348 4 gusting 6 -2.2
2020-Jan-17 23:15 350 3 gusting 6 -2.1
2020-Jan-17 23:10 349 4 gusting 6 -2.1
2020-Jan-17 23:05 348 3 gusting 5 -2.0
2020-Jan-17 23:00 349 3 gusting 5 -1.9
2020-Jan-17 22:55 342 3 gusting 6 -1.8
2020-Jan-17 22:50 348 5 gusting 7 -1.7
2020-Jan-17 22:45 350 5 gusting 7 -1.5
2020-Jan-17 22:40 350 4 gusting 7 -1.6
2020-Jan-17 22:35 010 4 gusting 6 -1.8
2020-Jan-17 22:30 008 3 gusting 5 -1.5
2020-Jan-17 22:25 359 3 gusting 6 -1.3
2020-Jan-17 22:20 360 4 gusting 8 -1.2
2020-Jan-17 22:15 355 4 gusting 6 -1.1
2020-Jan-17 22:10 351 6 gusting 10 -1.0
2020-Jan-17 22:05 353 5 gusting 8 -0.9
2020-Jan-17 22:00 357 5 gusting 8 -0.8
2020-Jan-17 21:55 002 5 gusting 9 -0.8
2020-Jan-17 21:50 -0.7
2020-Jan-17 21:45 351 6 gusting 10 -0.5
2020-Jan-17 21:40 350 6 gusting 10 -0.5
2020-Jan-17 21:35 352 7 gusting 11 -0.3
2020-Jan-17 21:30 352 7 gusting 12 -0.1
2020-Jan-17 21:25 349 6 gusting 11 0.0
2020-Jan-17 21:20 352 5 gusting 8 0.2
2020-Jan-17 21:15 005 6 gusting 9 0.3
2020-Jan-17 21:10 358 6 gusting 9 0.4
2020-Jan-17 21:05 345 5 gusting 10 0.5
2020-Jan-17 21:00 334 5 gusting 11 0.4
2020-Jan-17 20:55 353 6 gusting 10 0.5
2020-Jan-17 20:50 352 6 gusting 12 0.7
2020-Jan-17 20:45 346 6 gusting 11 0.7
2020-Jan-17 20:40 353 6 gusting 9 0.7
2020-Jan-17 20:35 352 7 gusting 12 0.6
2020-Jan-17 20:30 352 7 gusting 12 0.8
2020-Jan-17 20:25 004 5 gusting 9 1.0
2020-Jan-17 20:20 338 6 gusting 10 0.8
2020-Jan-17 20:15 352 6 gusting 11 0.8
2020-Jan-17 20:10 005 7 gusting 11 0.8
2020-Jan-17 20:05 353 7 gusting 10 0.7
2020-Jan-17 20:00 349 7 gusting 12 0.9
2020-Jan-17 19:55 341 6 gusting 11 1.0
2020-Jan-17 19:50 338 7 gusting 13 1.0
2020-Jan-17 19:45 354 8 gusting 13 1.1
2020-Jan-17 19:40 001 6 gusting 10 1.2
2020-Jan-17 19:35 355 7 gusting 11 1.0
2020-Jan-17 19:30 006 7 gusting 11 1.4
2020-Jan-17 19:25 357 7 gusting 12 1.2
2020-Jan-17 19:20 347 7 gusting 11 1.2
2020-Jan-17 19:15 353 6 gusting 10 0.9
2020-Jan-17 19:10 350 7 gusting 12 1.0
2020-Jan-17 19:05 002 7 gusting 10 1.2
2020-Jan-17 19:00 004 7 gusting 12 1.2
2020-Jan-17 18:55 356 7 gusting 13 1.1
2020-Jan-17 18:50 013 6 gusting 14 1.4
2020-Jan-17 18:45 002 8 gusting 13 1.1
2020-Jan-17 18:40 354 10 gusting 15 1.0
2020-Jan-17 18:35 358 8 gusting 13 1.2
2020-Jan-17 18:30 357 8 gusting 15 1.4
2020-Jan-17 18:25 344 7 gusting 12 1.2
2020-Jan-17 18:20 008 7 gusting 11 1.5
2020-Jan-17 18:15 014 7 gusting 12 1.5
2020-Jan-17 18:10 006 9 gusting 14 1.3
2020-Jan-17 18:05 001 8 gusting 14 1.6
2020-Jan-17 18:00 355 6 gusting 12 1.1
2020-Jan-17 17:55 355 8 gusting 14 1.3
2020-Jan-17 17:50 359 9 gusting 14 1.5
2020-Jan-17 17:45 351 7 gusting 12 1.5
2020-Jan-17 17:40 327 6 gusting 13 1.4
2020-Jan-17 17:35 338 7 gusting 12 1.3
2020-Jan-17 17:30 356 7 gusting 13 1.4
2020-Jan-17 17:25 353 8 gusting 14 1.1
2020-Jan-17 17:20 358 8 gusting 16 1.8
2020-Jan-17 17:15 356 7 gusting 12 1.2
2020-Jan-17 17:10 358 8 gusting 12 1.1
2020-Jan-17 17:05 006 7 gusting 12 1.1
2020-Jan-17 17:00 355 9 gusting 16 0.9
2020-Jan-17 16:55 005 9 gusting 15 1.0
2020-Jan-17 16:50 002 9 gusting 15 0.6
2020-Jan-17 16:45 359 11 gusting 16 0.8
2020-Jan-17 16:40 356 9 gusting 15 0.9
2020-Jan-17 16:35 352 10 gusting 20 0.6
2020-Jan-17 16:30 350 11 gusting 17 0.5
2020-Jan-17 16:25 350 10 gusting 16 0.7
2020-Jan-17 16:20 005 9 gusting 15 0.8
2020-Jan-17 16:15 008 10 gusting 15 0.6
2020-Jan-17 16:10 011 10 gusting 16 0.6
2020-Jan-17 16:05 007 10 gusting 18 0.7
2020-Jan-17 16:00 009 9 gusting 14 0.4
2020-Jan-17 15:55 360 10 gusting 15 0.5
2020-Jan-17 15:50 001 9 gusting 15 0.4
2020-Jan-17 15:45 007 9 gusting 18 0.5
2020-Jan-17 15:40 012 10 gusting 16 0.5
2020-Jan-17 15:35 358 9 gusting 15 0.2
2020-Jan-17 15:30 348 9 gusting 17 0.1
2020-Jan-17 15:25 350 9 gusting 15 0.1
2020-Jan-17 15:20 359 9 gusting 18 0.1
2020-Jan-17 15:15 003 9 gusting 14 0.2
2020-Jan-17 15:10 010 9 gusting 17 -0.1
2020-Jan-17 15:05 004 8 gusting 14 0.1
2020-Jan-17 15:00 005 9 gusting 16 -0.3
2020-Jan-17 14:55 001 9 gusting 16 -0.2
2020-Jan-17 14:50 002 9 gusting 17 -0.4
2020-Jan-17 14:45 009 10 gusting 16 -0.4
2020-Jan-17 14:40 010 11 gusting 22 -0.5
2020-Jan-17 14:35 007 7 gusting 14 -0.4
2020-Jan-17 14:30 357 8 gusting 13 -0.7
2020-Jan-17 14:25 353 10 gusting 16 -0.8
2020-Jan-17 14:20 001 9 gusting 14 -0.8
2020-Jan-17 14:15 355 9 gusting 16 -0.8
2020-Jan-17 14:10 355 8 gusting 13 -0.8
2020-Jan-17 14:05 004 9 gusting 16 -0.8
2020-Jan-17 14:00 352 6 gusting 12 -0.8
2020-Jan-17 13:55 355 6 gusting 9 -0.9
2020-Jan-17 13:50 002 7 gusting 12 -1.0
2020-Jan-17 13:45 359 6 gusting 12 -1.1
2020-Jan-17 13:40 355 8 gusting 14 -1.2
2020-Jan-17 13:35 359 8 gusting 14 -1.3
2020-Jan-17 13:30 356 8 gusting 13 -1.3
2020-Jan-17 13:25 352 8 gusting 14 -1.3
2020-Jan-17 13:20 352 6 gusting 12 -1.3
2020-Jan-17 13:15 350 6 gusting 10 -1.4
2020-Jan-17 13:10 353 6 gusting 11 -1.4
2020-Jan-17 13:05 351 8 gusting 16 -1.5
2020-Jan-17 13:00 351 5 gusting 14 -1.5
2020-Jan-17 12:55 349 5 gusting 8 -1.5
2020-Jan-17 12:50 349 5 gusting 9 -1.5
2020-Jan-17 12:45 351 7 gusting 11 -1.5
2020-Jan-17 12:40 352 6 gusting 10 -1.5
2020-Jan-17 12:35 351 9 gusting 17 -1.5
2020-Jan-17 12:30 351 8 gusting 12 -1.5
2020-Jan-17 12:25 350 8 gusting 14 -1.5
2020-Jan-17 12:20 350 9 gusting 15 -1.4
2020-Jan-17 12:15 356 8 gusting 13 -1.4
2020-Jan-17 12:10 352 7 gusting 12 -1.3
2020-Jan-17 12:05 354 7 gusting 12 -1.3
2020-Jan-17 12:00 352 8 gusting 17 -1.2
2020-Jan-17 11:55 352 8 gusting 14 -1.2
2020-Jan-17 11:50 358 8 gusting 15 -1.1
2020-Jan-17 11:45 009 7 gusting 14 -1.1
2020-Jan-17 11:40 003 6 gusting 12 -0.9
2020-Jan-17 11:35 355 7 gusting 12 -0.8
2020-Jan-17 11:30 354 7 gusting 11 -0.7
2020-Jan-17 11:25 350 8 gusting 14 -0.6
2020-Jan-17 11:20 348 9 gusting 15 -0.4
2020-Jan-17 11:15 346 8 gusting 16 -0.4
2020-Jan-17 11:10 343 8 gusting 11 -0.3
2020-Jan-17 11:05 350 7 gusting 12 -0.3
2020-Jan-17 11:00 347 9 gusting 16 -0.2
2020-Jan-17 10:55 339 8 gusting 15 -0.3
2020-Jan-17 10:50 343 10 gusting 17 -0.2
2020-Jan-17 10:45 343 10 gusting 16 -0.2
2020-Jan-17 10:40 344 7 gusting 15 -0.3
2020-Jan-17 10:35 348 6 gusting 12 -0.3
2020-Jan-17 10:30 345 9 gusting 15 -0.2
2020-Jan-17 10:25 348 7 gusting 12 -0.2
2020-Jan-17 10:20 353 7 gusting 14 -0.2
2020-Jan-17 10:15 352 7 gusting 10 -0.2
2020-Jan-17 10:10 346 6 gusting 12 -0.2
2020-Jan-17 10:05 348 7 gusting 11 -0.2
2020-Jan-17 10:00 347 6 gusting 11 -0.2
2020-Jan-17 09:55 341 6 gusting 10 -0.1
2020-Jan-17 09:50 345 6 gusting 11 0.0
2020-Jan-17 09:45 347 8 gusting 12 0.1
2020-Jan-17 09:40 347 8 gusting 12 0.1
2020-Jan-17 09:35 341 7 gusting 14 -0.0
2020-Jan-17 09:30 340 6 gusting 11 0.0
2020-Jan-17 09:25 332 7 gusting 12 -0.1
2020-Jan-17 09:20 325 6 gusting 10 -0.4
2020-Jan-17 09:15 317 3 gusting 7 -0.6
2020-Jan-17 09:10 323 3 gusting 6 -0.5
2020-Jan-17 09:05 323 2 gusting 5 -0.3
2020-Jan-17 09:00 344 4 gusting 6 -0.0
2020-Jan-17 08:55 341 4 gusting 7 -0.0
2020-Jan-17 08:50 329 4 gusting 8 0.0
2020-Jan-17 08:45 332 4 gusting 8 -0.0
2020-Jan-17 08:40 330 3 gusting 6 -0.2
2020-Jan-17 08:35 324 2 gusting 5 -0.0
2020-Jan-17 08:30 332 3 gusting 6 -0.0
2020-Jan-17 08:25 327 3 gusting 5 0.1
2020-Jan-17 08:20 334 4 gusting 8 0.3
2020-Jan-17 08:15 340 4 gusting 8 0.5
2020-Jan-17 08:10 337 5 gusting 10 0.6
2020-Jan-17 08:05 347 6 gusting 11 0.7
2020-Jan-17 08:00 345 6 gusting 9 0.7
2020-Jan-17 07:55 349 6 gusting 11 0.7
2020-Jan-17 07:50 345 6 gusting 13 0.8
2020-Jan-17 07:45 348 7 gusting 12 0.8
2020-Jan-17 07:40 346 8 gusting 12 0.9
2020-Jan-17 07:35 342 7 gusting 11 0.8
2020-Jan-17 07:30 344 7 gusting 14 0.7
2020-Jan-17 07:25 326 4 gusting 10 0.6
2020-Jan-17 07:20 329 3 gusting 7 0.7
2020-Jan-17 07:15 330 5 gusting 8 0.9
2020-Jan-17 07:10 338 5 gusting 9 1.0
2020-Jan-17 07:05 340 6 gusting 13 1.0
2020-Jan-17 07:00 341 5 gusting 11 1.0
2020-Jan-17 06:55 331 5 gusting 10 1.0
2020-Jan-17 06:50 333 7 gusting 12 1.0
2020-Jan-17 06:45 327 5 gusting 10 0.9
2020-Jan-17 06:40 328 6 gusting 10 1.0
2020-Jan-17 06:35 328 4 gusting 8 1.1
2020-Jan-17 06:30 337 5 gusting 10 1.3
2020-Jan-17 06:25 327 5 gusting 11 1.3
2020-Jan-17 06:20 327 7 gusting 13 1.5
2020-Jan-17 06:15 340 7 gusting 13 1.5
2020-Jan-17 06:10 330 6 gusting 14 1.4
2020-Jan-17 06:05 324 5 gusting 9 1.5
2020-Jan-17 06:00 333 8 gusting 16 1.6
2020-Jan-17 05:55 325 7 gusting 12 1.6
2020-Jan-17 05:50 334 7 gusting 15 1.7
2020-Jan-17 05:45 326 7 gusting 15 1.7
2020-Jan-17 05:40 327 9 gusting 19 1.7
2020-Jan-17 05:35 330 8 gusting 14 1.8
2020-Jan-17 05:30 330 8 gusting 13 1.8
2020-Jan-17 05:25 328 7 gusting 12 1.8
2020-Jan-17 05:20 325 7 gusting 17 1.8
2020-Jan-17 05:15 331 6 gusting 13 2.0
2020-Jan-17 05:10 337 7 gusting 12 2.1
2020-Jan-17 05:05 342 9 gusting 15 2.1
2020-Jan-17 05:00 344 8 gusting 16 2.1
2020-Jan-17 04:55 332 8 gusting 17 2.2
2020-Jan-17 04:50 335 10 gusting 17 2.2
2020-Jan-17 04:45 335 9 gusting 15 2.1
2020-Jan-17 04:40 325 8 gusting 15 2.0
2020-Jan-17 04:35 327 6 gusting 11 2.0
2020-Jan-17 04:30 329 7 gusting 13 2.2
2020-Jan-17 04:25 327 8 gusting 14 2.2
2020-Jan-17 04:20 330 8 gusting 17 2.2
2020-Jan-17 04:15 324 8 gusting 15 2.3
2020-Jan-17 04:10 325 8 gusting 16 2.2
2020-Jan-17 04:05 326 7 gusting 13 2.1
2020-Jan-17 04:00 327 7 gusting 13 2.2
2020-Jan-17 03:55 324 7 gusting 13 2.3
2020-Jan-17 03:50 321 10 gusting 19 2.5
2020-Jan-17 03:45 328 9 gusting 19 2.3
2020-Jan-17 03:40 325 6 gusting 11 2.3
2020-Jan-17 03:35 325 8 gusting 16 2.4
2020-Jan-17 03:30 322 8 gusting 14 2.5
2020-Jan-17 03:25 325 8 gusting 14 2.6
2020-Jan-17 03:20 325 11 gusting 17 2.7
2020-Jan-17 03:15 323 9 gusting 17 2.6
2020-Jan-17 03:10 319 7 gusting 14 2.6
2020-Jan-17 03:05 328 8 gusting 15 2.6
2020-Jan-17 03:00 325 7 gusting 14 2.7
2020-Jan-17 02:55 325 8 gusting 15 2.9
2020-Jan-17 02:50 326 9 gusting 17 2.9
2020-Jan-17 02:45 328 9 gusting 17 3.0
2020-Jan-17 02:40 329 9 gusting 15 3.0
2020-Jan-17 02:35 329 10 gusting 15 3.1
2020-Jan-17 02:30 327 9 gusting 16 3.0
2020-Jan-17 02:25 323 7 gusting 14 2.9
2020-Jan-17 02:20 323 8 gusting 16 3.0
2020-Jan-17 02:15 322 7 gusting 17 3.1
2020-Jan-17 02:10 321 8 gusting 14 3.2
2020-Jan-17 02:05 320 6 gusting 12 3.2
2020-Jan-17 02:00 319 8 gusting 13 3.5
2020-Jan-17 01:55 337 8 gusting 16 3.7
2020-Jan-17 01:50 332 9 gusting 15 3.7
2020-Jan-17 01:45 325 9 gusting 16 3.7
2020-Jan-17 01:40 333 8 gusting 14 3.9
2020-Jan-17 01:35 333 10 gusting 18 3.9
2020-Jan-17 01:30 334 9 gusting 15 3.9
2020-Jan-17 01:25 328 9 gusting 20 3.9
2020-Jan-17 01:20 337 9 gusting 15 4.1
2020-Jan-17 01:15 340 10 gusting 18 4.1
2020-Jan-17 01:10 337 8 gusting 13 4.2
2020-Jan-17 01:05 342 9 gusting 16 4.4
2020-Jan-17 01:00 334 10 gusting 18 4.5
2020-Jan-17 00:55 327 10 gusting 17 4.5
2020-Jan-17 00:50 322 7 gusting 17 4.4
2020-Jan-17 00:45 321 7 gusting 14 4.5
2020-Jan-17 00:40 323 7 gusting 15 4.7
2020-Jan-17 00:35 328 8 gusting 15 4.9
2020-Jan-17 00:30 329 9 gusting 16 5.0
2020-Jan-17 00:25 326 9 gusting 16 5.2
2020-Jan-17 00:20 330 10 gusting 20 5.4
2020-Jan-17 00:15 331 11 gusting 19 5.5
2020-Jan-17 00:10 336 13 gusting 23 5.6
2020-Jan-17 00:05 330 10 gusting 19 5.7
2020-Jan-17 00:00 332 10 gusting 18 5.8
2020-Jan-16 23:55 341 10 gusting 19 5.9
2020-Jan-16 23:50 338 12 gusting 20 6.1
2020-Jan-16 23:45 339 9 gusting 17 6.3
2020-Jan-16 23:40 344 12 gusting 20 6.6
2020-Jan-16 23:35 342 10 gusting 17 6.8
2020-Jan-16 23:30 346 11 gusting 18 6.9
2020-Jan-16 23:25 342 9 gusting 15 6.9
2020-Jan-16 23:20 336 6 gusting 11 6.7
2020-Jan-16 23:15 327 6 gusting 10 6.6
2020-Jan-16 23:10 333 5 gusting 10 6.7
2020-Jan-16 23:05 330 5 gusting 11 6.8
2020-Jan-16 23:00 329 6 gusting 10 6.8
2020-Jan-16 22:55 328 7 gusting 16 6.9
2020-Jan-16 22:50 324 8 gusting 16 6.8
2020-Jan-16 22:45 324 7 gusting 16 6.7
2020-Jan-16 22:40 321 6 gusting 12 6.6
2020-Jan-16 22:35 320 5 gusting 12 6.5
2020-Jan-16 22:30 317 4 gusting 7 6.5
2020-Jan-16 22:25 318 6 gusting 10 6.7
2020-Jan-16 22:20 327 6 gusting 11 6.8
2020-Jan-16 22:15 321 8 gusting 16 6.8
2020-Jan-16 22:10 322 7 gusting 15 6.9
2020-Jan-16 22:05 321 7 gusting 13 7.0
2020-Jan-16 22:00 319 6 gusting 11 7.1
2020-Jan-16 21:55 316 7 gusting 13 7.1
2020-Jan-16 21:50 315 9 gusting 15 7.3
2020-Jan-16 21:45 316 7 gusting 13 7.3
2020-Jan-16 21:40 315 7 gusting 14 7.5
2020-Jan-16 21:35 312 8 gusting 15 7.7
2020-Jan-16 21:30 320 9 gusting 18 7.9
2020-Jan-16 21:25 324 9 gusting 15 8.0
2020-Jan-16 21:20 322 11 gusting 18 8.1
2020-Jan-16 21:15 321 9 gusting 17 8.3
2020-Jan-16 21:10 326 7 gusting 16 8.5
2020-Jan-16 21:05 326 10 gusting 17 8.5
2020-Jan-16 21:00 324 10 gusting 16 8.6
2020-Jan-16 20:55 319 10 gusting 19 8.7
2020-Jan-16 20:50 327 9 gusting 16 8.8
2020-Jan-16 20:45 325 11 gusting 18 9.0
2020-Jan-16 20:40 321 10 gusting 20 9.1
2020-Jan-16 20:35 321 11 gusting 22 9.3
2020-Jan-16 20:30 321 9 gusting 18 9.4
2020-Jan-16 20:25 321 13 gusting 24 9.5
2020-Jan-16 20:20 324 10 gusting 20 9.7
2020-Jan-16 20:15 317 9 gusting 16 9.8
2020-Jan-16 20:10 315 10 gusting 20 9.9
2020-Jan-16 20:05 326 10 gusting 20 10.1
2020-Jan-16 20:00 326 11 gusting 20 10.2
2020-Jan-16 19:55 327 11 gusting 19 10.3
2020-Jan-16 19:50 328 12 gusting 19 10.5
2020-Jan-16 19:45 325 11 gusting 20 10.7
2020-Jan-16 19:40 321 9 gusting 18 10.8
2020-Jan-16 19:35 327 12 gusting 21 10.8
2020-Jan-16 19:30 315 10 gusting 19 11.0
2020-Jan-16 19:25 319 10 gusting 17 11.3
2020-Jan-16 19:20 322 9 gusting 17 11.2
2020-Jan-16 19:15 324 10 gusting 18 11.3
2020-Jan-16 19:10 319 8 gusting 13 11.4
2020-Jan-16 19:05 328 10 gusting 20 11.4
2020-Jan-16 19:00 315 10 gusting 18 11.5
2020-Jan-16 18:55 317 9 gusting 19 11.4
2020-Jan-16 18:50 322 12 gusting 22 11.3
2020-Jan-16 18:45 324 12 gusting 27 11.4
2020-Jan-16 18:40 310 10 gusting 16 11.5
2020-Jan-16 18:35 314 11 gusting 24 11.4
2020-Jan-16 18:30 316 9 gusting 16 11.8
2020-Jan-16 18:25 316 10 gusting 18 11.6
2020-Jan-16 18:20 314 11 gusting 20 11.6
2020-Jan-16 18:15 317 11 gusting 21 11.7
2020-Jan-16 18:10 325 8 gusting 16 11.7
2020-Jan-16 18:05 320 10 gusting 18 11.7
2020-Jan-16 18:00 316 9 gusting 17 11.6
2020-Jan-16 17:55 312 11 gusting 17 11.5
2020-Jan-16 17:50 316 9 gusting 15 11.8
2020-Jan-16 17:45 321 10 gusting 18 11.5
2020-Jan-16 17:40 321 11 gusting 20 11.6
2020-Jan-16 17:35 319 11 gusting 18 11.6
2020-Jan-16 17:30 319 10 gusting 21 11.7
2020-Jan-16 17:25 322 11 gusting 20 11.5
2020-Jan-16 17:20 318 10 gusting 18 11.3
2020-Jan-16 17:15 318 10 gusting 23 10.6
2020-Jan-16 17:10 331 12 gusting 20 10.8
2020-Jan-16 17:05 321 10 gusting 20 10.9
2020-Jan-16 17:00 314 9 gusting 17 11.0
2020-Jan-16 16:55 312 11 gusting 25 11.1
2020-Jan-16 16:50 316 9 gusting 17 10.7
2020-Jan-16 16:45 314 7 gusting 13 10.3
2020-Jan-16 16:40 316 7 gusting 16 10.2
2020-Jan-16 16:35 321 8 gusting 15 10.3
2020-Jan-16 16:30 321 9 gusting 20 10.6
2020-Jan-16 16:25 320 8 gusting 16 10.7
2020-Jan-16 16:20 315 8 gusting 13 10.8
2020-Jan-16 16:15 318 8 gusting 15 10.9
2020-Jan-16 16:10 314 8 gusting 17 10.9
2020-Jan-16 16:05 319 8 gusting 14 11.1
2020-Jan-16 16:00 316 7 gusting 14 11.1
2020-Jan-16 15:55 321 8 gusting 16 11.1
2020-Jan-16 15:50 319 10 gusting 17 11.2
2020-Jan-16 15:45 318 9 gusting 14 11.3
2020-Jan-16 15:40 320 9 gusting 16 11.4
2020-Jan-16 15:35 323 7 gusting 17 11.5
2020-Jan-16 15:30 322 9 gusting 17 11.5
2020-Jan-16 15:25 318 9 gusting 15 11.6
2020-Jan-16 15:20 325 9 gusting 16 11.7
2020-Jan-16 15:15 321 8 gusting 16 11.8
2020-Jan-16 15:10 313 7 gusting 12 12.0
2020-Jan-16 15:05 317 8 gusting 16 12.1
2020-Jan-16 15:00 319 7 gusting 17 12.4
2020-Jan-16 14:55 319 9 gusting 17 12.3
2020-Jan-16 14:50 318 7 gusting 15 12.4
2020-Jan-16 14:45 321 8 gusting 17 12.6
2020-Jan-16 14:40 323 7 gusting 13 12.5
2020-Jan-16 14:35 320 8 gusting 14 12.5
2020-Jan-16 14:30 316 8 gusting 14 12.6
2020-Jan-16 14:25 318 9 gusting 18 12.6
2020-Jan-16 14:20 318 9 gusting 18 12.5
2020-Jan-16 14:15 315 8 gusting 18 12.3
2020-Jan-16 14:10 306 8 gusting 16 12.3
2020-Jan-16 14:05 307 7 gusting 13 12.4
2020-Jan-16 14:00 301 7 gusting 13 12.4
2020-Jan-16 13:55 302 8 gusting 12 12.4
2020-Jan-16 13:50 309 6 gusting 14 12.5
2020-Jan-16 13:45 315 8 gusting 16 12.6
2020-Jan-16 13:40 313 8 gusting 18 12.4
2020-Jan-16 13:35 311 7 gusting 18 12.4
2020-Jan-16 13:30 309 8 gusting 15 12.4
2020-Jan-16 13:25 310 7 gusting 13 12.2
2020-Jan-16 13:20 303 7 gusting 14 11.9
2020-Jan-16 13:15 311 7 gusting 13 11.7
2020-Jan-16 13:10 311 6 gusting 14 11.2
2020-Jan-16 13:05 312 6 gusting 11 11.1
2020-Jan-16 13:00 316 5 gusting 10 11.0
2020-Jan-16 12:55 312 5 gusting 12 10.8
2020-Jan-16 12:50 310 5 gusting 9 10.8
2020-Jan-16 12:45 314 6 gusting 12 11.0
2020-Jan-16 12:40 318 6 gusting 11 11.0
2020-Jan-16 12:35 317 6 gusting 12 10.9
2020-Jan-16 12:30 318 5 gusting 11 10.9
2020-Jan-16 12:25 316 6 gusting 10 10.9
2020-Jan-16 12:20 316 6 gusting 11 10.7
2020-Jan-16 12:15 311 4 gusting 11 10.6
2020-Jan-16 12:10 306 5 gusting 10 10.5
2020-Jan-16 12:05 299 6 gusting 12 10.5
2020-Jan-16 12:00 297 6 gusting 9 10.3
2020-Jan-16 11:55 297 6 gusting 10 10.3
2020-Jan-16 11:50 297 5 gusting 8 10.3
2020-Jan-16 11:45 294 5 gusting 9 10.2
2020-Jan-16 11:40 294 5 gusting 7 10.2
2020-Jan-16 11:35 292 5 gusting 6 10.2
2020-Jan-16 11:30 291 5 gusting 8 10.2
2020-Jan-16 11:25 295 5 gusting 8 10.2
2020-Jan-16 11:20 294 5 gusting 8 10.3
2020-Jan-16 11:15 304 4 gusting 7 10.3
2020-Jan-16 11:10 301 4 gusting 7 10.4
2020-Jan-16 11:05 308 4 gusting 7 10.4
2020-Jan-16 11:00 311 4 gusting 6 10.5